Hourly Data Report for October 18, 2016

All times are specified in Local Standard Time (LST). Add 1 hour to adjust for Daylight Saving Time where and when it is observed.

MONCTON INTL A
NEW BRUNSWICK

46°06'44.000" N
64°40'43.000" W
70.70 m
8103201
71705
YQM

Download Data

Hourly Data (October 2016)
Hourly Data Report for October 18, 2016
Temp Definition
°C
Dew Point Temp Definition
°C
Rel Hum Definition
%
Wind Dir Definition
10's deg

Wind Spd Definition
km/h
Visibility Definition
km
Stn Press Definition
kPa
Hmdx Definition


Wind Chill Definition


Weather Definition


TIME
00:00 Legend Double Dagger 4.2 2.2 87 22 9 24.1 100.49     LegendNANA
01:00 Legend Double Dagger 3.6 2.3 91 21 14 24.1 100.59     LegendNANA
02:00 Legend Double Dagger 2.8 1.9 94 23 13 24.1 100.63     Mainly Clear
03:00 Legend Double Dagger 2.8 1.8 93 23 11 24.1 100.69     LegendNANA
04:00 Legend Double Dagger 2.9 2.0 94 23 11 24.1 100.76     LegendNANA
05:00 Legend Double Dagger 2.8 2.1 95 26 8 24.1 100.81     Mostly Cloudy
06:00 Legend Double Dagger 3.4 1.6 88 28 4 24.1 100.82     LegendNANA
07:00 Legend Double Dagger 2.1 1.2 94 24 4 24.1 100.84     LegendNANA
08:00 Legend Double Dagger 3.4 2.5 94 23 14 24.1 101.02     Mainly Clear
09:00 Legend Double Dagger 5.7 3.4 85 17 4 24.1 101.07     LegendNANA
10:00 Legend Double Dagger 9.3 5.7 78 36 1 24.1 101.08     LegendNANA
11:00 Legend Double Dagger 11.2 5.8 69 5 7 24.1 101.02     Mostly Cloudy
12:00 Legend Double Dagger 11.0 4.7 65 35 6 24.1 101.03     LegendNANA
13:00 Legend Double Dagger 12.7 5.4 61 10 6 24.1 100.94     LegendNANA
14:00 Legend Double Dagger 13.9 6.1 59 9 15 24.1 100.83     Mostly Cloudy
15:00 Legend Double Dagger 13.6 5.6 58 16 12 24.1 100.85     LegendNANA
16:00 Legend Double Dagger 12.4 5.6 63 13 20 24.1 100.72     LegendNANA
17:00 Legend Double Dagger 11.3 6.3 71 11 20 24.1 100.67     Mostly Cloudy
18:00 Legend Double Dagger 10.1 6.7 79 10 15 24.1 100.59     LegendNANA
19:00 Legend Double Dagger 11.1 7.1 76 12 21 24.1 100.50     LegendNANA
20:00 Legend Double Dagger 12.0 7.2 72 16 26 24.1 100.39     Mostly Cloudy
21:00 Legend Double Dagger 11.3 8.0 80 17 30 24.1 100.25     LegendNANA
22:00 Legend Double Dagger 12.1 8.4 78 17 32 24.1 100.15     LegendNANA
23:00 Legend Double Dagger 12.8 9.1 78 17 37 24.1 100.02     Cloudy

Notes on Data Quality.

Legend

  • E = Estimated
  • M = Missing
  • NA = Not Available
  • ‡ = Partner data that is not subject to review by the National Climate Archives
Date modified: